Regional Weather Roundup
Issued by NWS

Home | Current Version | Previous Version | Graphics & Text | Print | Product List | Glossary On
Versions: 1 2 3 4 5 6 7 8 9 10 11 12 13 14 15 16 17 18 19 20 21 22 23 24 25 26 27 28 29 30 31 32 33 34 35 36 37 38 39 40 41 42 43 44 45 46 47 48 49 50
307
ASUS44 KJAN 290210
RWRMS

MISSISSIPPI HOURLY WEATHER ROUNDUP
NATIONAL WEATHER SERVICE JACKSON MS
900 PM CDT MON JUL 28 2014

NOTE: "FAIR: INDICATES FEW OR NO CLOUDS BELOW 12,000 FEET WITH NO
SIGNIFICANT WEATHER AND/OR OBSTRUCTIONS TO VISIBILITY.

MSZ001>002-007>008-010>013-018>021-025>028-034>036-290300-
NORTHWEST MISSISSIPPI

CITY           SKY/WX    TMP DP  RH WIND       PRES   REMARKS
CLARKSDALE     FAIR      73  70  88 W3        30.06R
CLEVELAND      FAIR      74  67  80 NW5       30.06R
GREENWOOD      CLEAR     73  67  81 NW3       30.05R
GREENVILLE     PTCLDY    75  68  78 NE3       30.05R
GRENADA        FAIR      72  66  83 CALM      30.05R
OLIVE BRANCH   CLEAR     73  66  78 CALM      30.04R
OXFORD         FAIR      72  64  78 CALM      30.06R
TUNICA         CLEAR     73  64  73 CALM      30.05R
$$

MSZ003>006-009-014>017-022>024-029>033-037>039-290300-
NORTHEAST MISSISSIPPI

CITY           SKY/WX    TMP DP  RH WIND       PRES   REMARKS
BELMONT        FAIR      74  64  70 CALM      30.03R
COLUMBUS AFB   CLEAR     74  65  72 NW5       30.03R
CORINTH        FAIR      72  64  78 CALM      30.03R
GOLDN TRIANGLE CLEAR     75  63  64 NW5       30.04R
STARKVILLE     FAIR      73  64  73 CALM      30.04R
TUPELO         CLEAR     75  64  68 CALM      30.02R
$$

MSZ040-058-290300-
CENTRAL MISSISSIPPI

CITY           SKY/WX    TMP DP  RH WIND       PRES   REMARKS
JACKSON INTL   CLEAR     78  67  68 N6        30.03R
JACKSON HAWKNS CLEAR     80  63  55 NW3       30.04R
MERIDIAN KEY   CLEAR     78  65  63 NW6       30.01R
MERIDIAN NAS   CLEAR     79  64  60 N7        30.01R
RAYMOND        FAIR      77  72  83 CALM      30.05R
VICKSBURG      PTCLDY    77  68  73 N5        30.03S
$$

MSZ059>079-290300-
SOUTH MISSISSIPPI

CITY           SKY/WX    TMP DP  RH WIND       PRES   REMARKS
BROOKHAVEN     FAIR      79  72  78 NW3       30.05R
COLUMBIA       FAIR      82  73  74 N6        30.00R
HATTIESBURG    CLEAR     85  73  67 NW9       29.99R HX  91
MCCOMB         PTCLDY    79  74  84 NW7       30.03R
NATCHEZ        PTCLDY    77  72  83 S3        30.04R
PINE BELT      CLEAR     82  70  65 NW5       30.02R
$$

MSZ080>082-290300-
COASTAL MISSISSIPPI

CITY           SKY/WX    TMP DP  RH WIND       PRES   REMARKS
BAY ST LOUIS   PTCLDY   N/A N/A N/A CALM      29.98R
BILOXI         MOCLDY    86  78  78 VRB2      29.98R HX  98
PASCAGOULA     CLOUDY    82  75  79 N3        29.97R
GULFPORT       PTCLDY    88  76  67 W3        29.97R HX  99
$$



USA.gov is the U.S. government's official web portal to all federal, state and local government web resources and services.